Overview Statistics Trail Chart Weather Telemetry Raw packets
 

This is the latest recevied weather packets stored in our database for station/object 4S6DRJ-13. If no packets are shown the sender has not sent any weather packets the latest 10 day(s).

<< 436 437 438 439 440 441 442 >>
Time Temp. Humidity Pressure Rain* Wind** Luminosity Snow
1787795032 27.78° C 85% 1010.2 hPa 0 mm 0 m/s 133 W/m² -
1787794975 27.78° C 85% 1010.1 hPa 0 mm 0.45 m/s, 237° 139 W/m² -
1787794911 27.78° C 85% 1010.2 hPa 0 mm 0 m/s 133 W/m² -
1787794849 27.78° C 86% 1010.3 hPa 0 mm 0 m/s 136 W/m² -
1787794789 27.78° C 86% 1010.2 hPa 0 mm 0.45 m/s, 198° 143 W/m² -
1787794727 27.78° C 86% 1010.3 hPa 0 mm 0.89 m/s, 130° 136 W/m² -
1787794666 27.78° C 86% 1010.2 hPa 0 mm 0.45 m/s, 180° 135 W/m² -
1787794605 27.22° C 86% 1009.9 hPa 0 mm 0.89 m/s, 231° 130 W/m² -
1787794545 27.22° C 86% 1010.2 hPa 0 mm 0.45 m/s, 212° 123 W/m² -
1787794484 27.22° C 86% 1009.9 hPa 0 mm 0 m/s 123 W/m² -
1787794422 27.22° C 86% 1010 hPa 0 mm 0.89 m/s, 206° 117 W/m² -
1787794361 27.22° C 86% 1009.8 hPa 0 mm 1.34 m/s, 237° 112 W/m² -
1787794300 27.22° C 86% 1010 hPa 0 mm 1.34 m/s, 184° 115 W/m² -
1787794239 27.22° C 86% 1009.9 hPa 0 mm 0 m/s 111 W/m² -
1787794178 27.22° C 86% 1009.9 hPa 0 mm 0.89 m/s, 192° 99 W/m² -
1787794117 27.22° C 86% 1009.8 hPa 0 mm 1.34 m/s, 219° 89 W/m² -
1787794056 27.22° C 86% 1010 hPa 0 mm 0.89 m/s, 226° 86 W/m² -
1787793995 27.22° C 86% 1009.9 hPa 0 mm 0.89 m/s, 219° 83 W/m² -
1787793934 27.22° C 86% 1009.7 hPa 0 mm 0.89 m/s, 197° 83 W/m² -
1787793873 27.22° C 86% 1009.6 hPa 0 mm 0 m/s 77 W/m² -
1787793811 27.22° C 87% 1009.9 hPa 0 mm 0.45 m/s, 207° 73 W/m² -
1787793751 27.22° C 87% 1009.6 hPa 0 mm 0.89 m/s, 222° 73 W/m² -
1787793690 27.22° C 87% 1009.8 hPa 0 mm 0.89 m/s, 245° 75 W/m² -
1787793630 27.22° C 87% 1009.7 hPa 0 mm 0.89 m/s, 245° 77 W/m² -
1787793568 27.22° C 87% 1009.6 hPa 0 mm 0.45 m/s, 224° 76 W/m² -

* Rain latest hour (hover to see other rain measurements)
** Current wind speed in m/s (hover to see current wind gust speed)